FW1393 Weather Reports


time (UTC)temp
F
wind
direction
speed
knots
gust
knots
rain 1hr
in
rain 24hr
in
rain mn
in
humidity
%
barometer
mb
20260506121608 64 153 2.6 5.2 0.00 0.37 0.37 71 1005.8
20260506120051 63 65 2.6 5.2 0.00 0.37 0.37 71 1006.0
20260506114549 63 214 0.9 5.2 0.00 0.37 0.37 74 1006.0
20260506113048 62 101 2.6 5.2 0.00 0.37 0.37 74 1006.1
20260506111547 62 83 1.7 6.1 0.00 0.37 0.37 73 1006.1
20260506110045 63 77 0.9 5.2 0.00 0.37 0.37 72 1006.2
20260506104546 62 284 1.7 5.2 0.00 0.39 0.37 77 1006.5
20260506103040 61 94 1.7 5.2 0.00 0.39 0.37 80 1006.6
20260506101539 61 102 0.0 3.5 0.00 0.39 0.37 80 1006.7
20260506100038 61 138 2.6 5.2 0.00 0.39 0.37 80 1006.7
20260506094535 61 81 0.9 4.3 0.00 0.40 0.37 82 1006.8
20260506093033 61 135 0.0 3.5 0.00 0.40 0.37 83 1006.9
20260506091529 58 353 0.9 3.5 0.00 0.40 0.37 85 1007.1
20260506090026 58 117 0.0 2.6 0.00 0.40 0.37 90 1007.2
20260506084533 56 78 0.9 2.6 0.00 0.42 0.37 95 1007.2
20260506083024 55 72 0.0 2.6 0.00 0.42 0.37 95 1007.3
20260506081518 54 295 0.0 1.7 0.00 0.42 0.37 95 1007.3
20260506073014 53 310 0.0 1.7 0.03 0.42 0.37 97 1007.4
20260506071513 53 331 0.0 0.9 0.07 0.42 0.37 97 1007.4
20260506061509 53 240 0.0 0.9 0.09 0.35 0.30 97 1007.8
20260506044510 53 119 0.0 2.6 0.06 0.32 0.17 97 1008.1
20260506043002 53 100 0.0 1.7 0.05 0.30 0.15 97 1008.2
20260506041501 53 86 0.0 1.7 0.04 0.28 0.13 97 1008.2
20260506040001 53 116 0.0 2.6 0.03 0.41 0.12 97 1008.2
20260506034604 53 124 0.9 2.6 0.03 0.41 0.12 97 1008.4
20260506033057 53 149 0.0 0.9 0.02 0.39 0.10 97 1008.4
20260506031557 53 129 0.0 1.7 0.01 0.38 0.09 97 1008.5
20260506030057 53 94 0.9 2.6 0.01 0.38 0.09 97 1008.8
20260506024556 53 98 0.0 0.9 0.01 0.39 0.09 97 1009.0
20260506023106 53 125 0.0 1.7 0.00 0.39 0.08 97 1009.1
20260506021551 53 84 0.0 0.9 0.00 0.39 0.08 96 1009.3
20260506020054 53 41 0.0 0.9 0.00 0.39 0.08 96 1009.4
20260506014548 53 39 0.0 1.7 0.01 0.39 0.08 96 1009.5
20260506013054 53 33 0.0 0.9 0.01 0.39 0.08 96 1009.5
20260506011547 53 330 0.0 0.9 0.06 0.39 0.08 96 1009.7
20260506010043 53 125 0.0 0.9 0.08 0.39 0.08 96 1009.8
20260506004541 54 126 0.0 0.0 0.07 0.43 0.07 96 1010.2
20260506003039 54 131 0.0 0.9 0.06 0.42 0.06 95 1010.4
20260506001536 54 98 0.0 0.9 0.02 0.38 0.02 95 1010.7
20260506000036 54 49 0.0 0.0 0.00 0.35 0.00 95 1010.9
20260505234534 54 49 0.0 0.9 0.00 0.37 0.00 95 1010.9
20260505233033 54 49 0.0 0.9 0.00 0.37 0.00 95 1011.0
20260505231532 54 49 0.0 0.9 0.00 0.37 0.00 95 1011.2
20260505230045 54 59 0.0 0.9 0.00 0.37 0.00 94 1011.2
20260505224533 54 128 0.0 0.9 0.00 0.37 0.00 94 1011.3
20260505223037 54 165 0.0 0.0 0.00 0.37 0.00 94 1011.4
20260505221529 54 146 0.0 0.0 0.00 0.37 0.00 95 1011.5
20260505220044 54 87 0.0 0.0 0.00 0.37 0.37 95 1011.2
20260505214533 54 87 0.0 0.0 0.00 0.37 0.37 94 1011.3
20260505213024 54 238 0.0 0.0 0.00 0.37 0.37 95 1011.9
20260505211523 54 320 0.0 0.0 0.00 0.37 0.37 95 1011.9
20260505210023 54 28 0.0 0.9 0.00 0.37 0.37 95 1011.8
20260505204522 54 33 0.0 0.9 0.00 0.37 0.37 94 1011.9
20260505203022 54 33 0.0 0.0 0.00 0.37 0.37 94 1012.0
20260505201521 54 33 0.0 0.0 0.00 0.37 0.37 94 1012.0
20260505200033 54 33 0.0 0.0 0.00 0.37 0.37 94 1011.9
20260505194520 54 33 0.0 0.0 0.00 0.37 0.37 93 1011.9
20260505193019 54 33 0.0 0.0 0.00 0.37 0.37 93 1011.9
20260505191526 55 33 0.0 0.9 0.00 0.37 0.37 92 1011.7
20260505190022 55 46 0.0 0.9 0.00 0.39 0.37 91 1011.4
20260505184518 56 199 0.0 0.0 0.00 0.39 0.37 89 1011.5
20260505183020 56 205 0.0 0.0 0.00 0.39 0.37 89 1011.6
20260505181521 56 126 0.0 0.9 0.00 0.39 0.37 88 1011.5
20260505180015 56 126 0.0 0.9 0.00 0.45 0.37 87 1011.5
20260505174515 56 215 0.0 1.7 0.00 0.45 0.37 87 1011.5
20260505173015 56 129 0.0 1.7 0.00 0.45 0.37 87 1011.5
20260505171513 57 143 0.0 3.5 0.00 0.45 0.37 87 1011.5
20260505170014 57 163 0.9 2.6 0.00 0.46 0.37 87 1011.6
20260505164512 57 134 1.7 3.5 0.00 0.46 0.37 85 1011.8
20260505163011 57 141 0.9 2.6 0.00 0.46 0.37 84 1011.7
20260505161528 58 136 0.9 2.6 0.00 0.46 0.37 84 1011.8
20260505153013 59 128 0.0 2.6 0.00 0.46 0.37 82 1011.7
20260505151508 60 332 0.0 2.6 0.00 0.46 0.37 79 1011.7
20260505124647 55 72 0.9 3.5 0.00 0.46 0.37 89 1012.9
20260505123046 55 75 0.0 2.6 0.00 0.46 0.37 90 1012.9